Regional Weather Roundup
Issued by NWS Little Rock, AR

Home | Current Version | Previous Version | Graphics & Text | Print | Product List | Glossary On
Versions: 1 2 3 4 5 6 7 8 9 10 11 12 13 14 15 16 17 18 19 20 21 22 23 24 25 26 27 28 29 30 31 32 33 34 35 36 37 38 39 40 41 42 43 44 45 46 47 48 49 50
979
ASUS44 KLZK 251505
RWRLZK

WEATHER ROUNDUP FOR ARKANSAS
NATIONAL WEATHER SERVICE LITTLE ROCK AR
1000 AM CDT TUE APR 25 2017

NOTE: "FAIR" INDICATES FEW OR NO CLOUDS BELOW 12,000 FEET WITH NO
SIGNIFICANT WEATHER AND/OR OBSTRUCTIONS TO VISIBILITY.

ARZ001-003-010-029-251600-
NORTHWEST ARKANSAS

CITY           SKY/WX    TMP DP  RH WIND       PRES   REMARKS
FAYETTEVILLE   MOSUNNY   68  53  58 S21G30    29.53F
FORT SMITH     SUNNY     70  53  54 E12       29.56F
HARRISON       SUNNY     69  51  52 S18G24    29.59F
BENTONVILLE    SUNNY     70  52  52 S16G25    29.53F
ROGERS         MOSUNNY   70  53  54 S20G26    29.53F
SILOAM SPGS    SUNNY     68  50  52 S20G30    29.52S
HIGHFILL       MOSUNNY   69  53  56 S21G31    29.52F
SPRINGDALE     SUNNY     70  52  52 S13G26    29.55F
$$

ARZ004-005-016-251600-
NORTH CENTRAL ARKANSAS

CITY           SKY/WX    TMP DP  RH WIND       PRES   REMARKS
BATESVILLE     SUNNY    N/A N/A N/A S10       29.69F
FLIPPIN        SUNNY    N/A N/A N/A SE10G18   29.59F
MTN HOME       SUNNY     69  50  50 S12G21    29.62
$$

ARZ040-041-251600-
WEST CENTRAL ARKANSAS

CITY           SKY/WX    TMP DP  RH WIND       PRES   REMARKS
MENA           SUNNY     70  55  60 SW8G16    29.64F
MOUNT IDA      SUNNY     69  53  56 VRB3      29.63F
$$

ARZ009-017-025-026-028-251600-
NORTHEAST ARKANSAS

CITY           SKY/WX    TMP DP  RH WIND       PRES   REMARKS
CORNING        FAIR      70  55  60 S14       29.71F
JONESBORO      SUNNY     67  56  67 S9        29.72F
NEWPORT        SUNNY     67  52  58 MISG        N/A
WALNUT RIDGE   SUNNY     68  52  56 S16       29.70F
BLYTHEVILLE    SUNNY     69  56  62 S10       29.74F
NW BLYTHEVILLE SUNNY     72  55  56 S10       29.73F
$$

ARZ022-023-033-042-044-251600-
CENTRAL ARKANSAS

CITY           SKY/WX    TMP DP  RH WIND       PRES   REMARKS
LITTLE ROCK    MOSUNNY   69  54  58 S13       29.70F
N LITTLE ROCK    N/A     69  53  57 S7        29.69F
JACKSONVILLE   SUNNY     69  55  59 S13       29.69F
CONWAY           N/A     68  54  60 S10G18    29.66F
SEARCY         SUNNY     69  57  65 S8        29.72F
HOT SPRINGS    SUNNY     69  54  58 S9        29.68F
RUSSELLVILLE   SUNNY     69  54  58 VRB6      29.64F
$$

ARZ036-251600-
EAST ARKANSAS

CITY           SKY/WX    TMP DP  RH WIND       PRES   REMARKS
WEST MEMPHIS   SUNNY     68  55  63 S12       29.74F
$$

ARZ050-053-066-070-073-251600-
SOUTHWEST ARKANSAS

CITY           SKY/WX    TMP DP  RH WIND       PRES   REMARKS
ARKADELPHIA    FAIR      69  59  70 S10       29.70S
CAMDEN         SUNNY     68  54  60 S10       29.72S
TEXARKANA      MOSUNNY   69  60  73 S17G24    29.69S
EL DORADO        N/A     68  57  68 S14G22    29.73S
DE QUEEN       SUNNY     69  60  73 S12       29.64F
$$

ARZ056-057-069-251600-
SOUTHEAST ARKANSAS

CITY           SKY/WX    TMP DP  RH WIND       PRES   REMARKS
PINE BLUFF     SUNNY     68  54  60 SW13G21   29.72F
STUTTGART      SUNNY     70  50  49 S15       29.73F
MONTICELLO     SUNNY     71  54  54 SW12G22   29.74F

$$






USA.gov is the U.S. government's official web portal to all federal, state and local government web resources and services.